风云三号E星 (FENGYUN 3E)

导读 | 豆包AI

FENGYUN 3E(风云三号E星)是中国于2021年7月4日发射的第二代太阳同步轨道气象卫星,也是风云三号系列的晨昏轨道卫星。它搭载11类先进观测仪器,覆盖多波段探测,可实现三维大气探测、大气化学组分监测、地表参数观测等任务。该星组网后将全球气象观测数据更新时效缩短至6小时,大幅提升中期天气预报能力,其观测数据也为全球气象业务提供重要支撑。

Basic Information
目录编号:
49008
目录名称:
FENGYUN 3E
国际标识:
2021-062A
轨道中心:
EARTH
卫星名称:
风云三号E星
卫星全名:
风云三号E星 (FENGYUN 3E)
卫星状态:
在轨 (已飞行1714 天)
发射日期:
2021-07-04 UTC
国别 :
中国 (CN)
星等 :
--
Orbit Information
数据来源 国际轨道数据 AOE轨道数据
星历时间 2026-03-14T08:00:49+0800
9小时前
查看轨道信息
2026-03-13T08:00:00+0800
1天前
查看轨道信息
半长轴 7203.849km 7203.846km
偏心率 0.0002065 0.0003831
轨道倾角 98.752° 98.741°
近地点辐角 34.150° 49.714°
升交点赤经 77.466° 76.482°
平近点角 325.981° 238.787°
近地点 824.224km 822.949km
远地点 827.2km 828.469km
周期 101.416分钟 101.416分钟
每日圈数 14.198939 14.198948
Detailed Information
平衡模式:
三轴稳定
覆盖范围:
亚洲
运营商:
夏威夷科学技术博物馆
运营商所在国:
美国
制造商(研发单位):
上海航天技术研究院
制造商所在国:
中国
使用方式:
暂无
Satellite Introduction
风云气象卫星系列(FENGYUN Meteorological Satellite)是中国于1977年开始研制的气象卫星系列,目前发射了风云一号、风云二号、风云三号、风云四号等卫星系列。其中,风云二号系列、风云四号系列为风云静止卫星,风云一号系列、风云三号系列为风云极轨卫星。该卫星仍在工作。
2D Orbit Map
3D Orbit Map
Orbit Altitude Analysis Chart
Orbit Inclination Analysis Chart
Orbit Comprehensive Analysis Chart
View Comprehensive Chart